When you browse on this site, cookies collect data to enhance your experience and personalize the content and advertising you see.
Visit our Privacy Policy to learn more. By continuing to use the site, you agree to this use of cookies and data.
  • In United Kingdom
  • List of Countries
  • For 7 days
  • Water Temperature
  • Satellite Maps
  • Weather Map
  • Weather Widgets
  • user-avatar
    Login

    Hourly Weather Truto

    Today, 19 January, Saturday

    Time Temperature Precipitation Wind Pressure Humidity
    00:00 +7°C° 0.2 mm 4 mps 751 mmHg 85%
    01:00 +8°C° 0.7 mm 4 mps 751 mmHg 85%
    02:00 +8°C° 0.7 mm 4 mps 751 mmHg 84%
    03:00 +8°C° 0.7 mm 4 mps 751 mmHg 84%
    04:00 +8°C° 0.4 mm 4 mps 751 mmHg 84%
    05:00 +8°C° 0.4 mm 5 mps 750 mmHg 84%
    06:00 +8°C° 0.4 mm 5 mps 750 mmHg 84%
    07:00 +8°C° 0.5 mm 5 mps 750 mmHg 84%
    08:00 +8°C° 0.5 mm 5 mps 750 mmHg 84%
    09:00 +8°C° 0.5 mm 5 mps 750 mmHg 84%
    10:00 +8°C° 0.4 mm 5 mps 751 mmHg 82%
    11:00 +9°C° 0.4 mm 5 mps 751 mmHg 79%
    12:00 +10°C° 0.4 mm 4 mps 751 mmHg 77%
    13:00 +10°C° 0.1 mm 4 mps 751 mmHg 77%
    14:00 +10°C° 0.1 mm 4 mps 750 mmHg 78%
    15:00 +10°C° 0.1 mm 4 mps 750 mmHg 78%
    16:00 +10°C° 0 mm 4 mps 751 mmHg 80%
    17:00 +9°C° 0 mm 3 mps 751 mmHg 82%
    18:00 +8°C° 0 mm 3 mps 751 mmHg 84%
    19:00 +8°C° 0 mm 3 mps 751 mmHg 85%
    20:00 +8°C° 0 mm 3 mps 752 mmHg 85%
    21:00 +8°C° 0 mm 3 mps 752 mmHg 86%
    22:00 +7°C° 0 mm 4 mps 753 mmHg 87%
    23:00 +7°C° 0 mm 5 mps 753 mmHg 88%

    Tomorrow, 20 January, Sunday

    Time Temperature Precipitation Wind Pressure Humidity
    00:00 +7°C° 0 mm 5 mps 754 mmHg 89%
    01:00 +7°C° 0 mm 6 mps 754 mmHg 89%
    02:00 +7°C° 0 mm 6 mps 754 mmHg 88%
    03:00 +7°C° 0 mm 6 mps 755 mmHg 88%
    04:00 +7°C° 0 mm 6 mps 755 mmHg 88%
    05:00 +7°C° 0 mm 6 mps 756 mmHg 87%
    06:00 +7°C° 0 mm 6 mps 756 mmHg 87%
    07:00 +7°C° 0 mm 6 mps 757 mmHg 86%
    08:00 +7°C° 0 mm 5 mps 758 mmHg 85%
    09:00 +7°C° 0 mm 5 mps 759 mmHg 84%
    10:00 +7°C° 0.1 mm 5 mps 759 mmHg 83%
    11:00 +8°C° 0.1 mm 5 mps 760 mmHg 82%
    12:00 +8°C° 0.1 mm 6 mps 761 mmHg 82%
    13:00 +8°C° 0.2 mm 6 mps 761 mmHg 82%
    14:00 +8°C° 0.2 mm 7 mps 761 mmHg 82%
    15:00 +7°C° 0.2 mm 8 mps 762 mmHg 83%
    16:00 +6°C° 0 mm 8 mps 763 mmHg 82%
    17:00 +6°C° 0 mm 8 mps 763 mmHg 81%
    18:00 +6°C° 0 mm 7 mps 764 mmHg 81%
    19:00 +6°C° 0 mm 7 mps 765 mmHg 81%
    20:00 +5°C° 0 mm 6 mps 765 mmHg 82%
    21:00 +6°C° 0 mm 5 mps 766 mmHg 82%
    22:00 +6°C° 0 mm 5 mps 766 mmHg 83%
    23:00 +6°C° 0 mm 4 mps 766 mmHg 83%

    Day after tomorrow, 21 January, Monday

    Time Temperature Precipitation Wind Pressure Humidity
    00:00 +6°C° 0 mm 4 mps 767 mmHg 84%
    01:00 +6°C° 0 mm 4 mps 767 mmHg 84%
    02:00 +6°C° 0 mm 4 mps 767 mmHg 83%
    03:00 +7°C° 0 mm 3 mps 767 mmHg 83%
    04:00 +7°C° 0.1 mm 3 mps 767 mmHg 82%
    05:00 +7°C° 0.1 mm 3 mps 767 mmHg 81%
    06:00 +7°C° 0.1 mm 3 mps 767 mmHg 80%
    07:00 +7°C° 0 mm 3 mps 767 mmHg 80%
    08:00 +7°C° 0 mm 3 mps 767 mmHg 79%
    09:00 +7°C° 0 mm 2 mps 767 mmHg 79%
    10:00 +7°C° 0 mm 3 mps 767 mmHg 77%
    11:00 +6°C° 0 mm 4 mps 766 mmHg 75%
    12:00 +7°C° 0 mm 4 mps 766 mmHg 73%
    13:00 +7°C° 0 mm 5 mps 765 mmHg 73%
    14:00 +5°C° 0 mm 6 mps 764 mmHg 73%
    15:00 +5°C° 0 mm 8 mps 763 mmHg 73%
    16:00 +6°C° 0 mm 9 mps 762 mmHg 73%
    17:00 +6°C° 0 mm 9 mps 761 mmHg 74%
    18:00 +6°C° 0 mm 10 mps 760 mmHg 75%
    19:00 +6°C° 0.9 mm 11 mps 759 mmHg 79%
    20:00 +5°C° 0.9 mm 12 mps 758 mmHg 84%
    21:00 +7°C° 0.9 mm 13 mps 757 mmHg 88%
    22:00 +5°C° 0.8 mm 12 mps 757 mmHg 81%
    23:00 +4°C° 0.8 mm 12 mps 756 mmHg 73%

    22 January, Tuesday

    Time Temperature Precipitation Wind Pressure Humidity
    00:00 +4°C° 0.8 mm 11 mps 756 mmHg 66%
    01:00 +3°C° 0.2 mm 11 mps 756 mmHg 64%
    02:00 +3°C° 0.2 mm 11 mps 755 mmHg 63%
    03:00 +3°C° 0.2 mm 11 mps 755 mmHg 61%
    04:00 +3°C° 0.2 mm 11 mps 755 mmHg 64%
    05:00 +3°C° 0.2 mm 10 mps 754 mmHg 66%
    06:00 +2°C° 0.2 mm 10 mps 754 mmHg 69%
    07:00 +2°C° 0.5 mm 10 mps 754 mmHg 69%
    08:00 +2°C° 0.5 mm 11 mps 753 mmHg 69%
    09:00 +2°C° 0.5 mm 12 mps 753 mmHg 69%
    10:00 +2°C° 0.3 mm 11 mps 753 mmHg 70%
    11:00 +2°C° 0.3 mm 11 mps 753 mmHg 71%
    12:00 +2°C° 0.3 mm 10 mps 753 mmHg 72%
    13:00 +2°C° 0.4 mm 10 mps 752 mmHg 72%
    14:00 +2°C° 0.4 mm 10 mps 752 mmHg 73%
    15:00 +2°C° 0.4 mm 10 mps 751 mmHg 73%
    16:00 +2°C° 0.3 mm 10 mps 751 mmHg 73%
    17:00 +2°C° 0.3 mm 10 mps 751 mmHg 72%
    18:00 +2°C° 0.3 mm 10 mps 751 mmHg 71%
    19:00 +2°C° 0.1 mm 10 mps 750 mmHg 71%
    20:00 +2°C° 0.1 mm 9 mps 750 mmHg 71%
    21:00 +2°C° 0.1 mm 8 mps 750 mmHg 71%
    22:00 +2°C° 0.1 mm 8 mps 749 mmHg 72%
    23:00 +2°C° 0.1 mm 8 mps 749 mmHg 73%

    23 January, Wednesday

    Time Temperature Precipitation Wind Pressure Humidity
    00:00 +2°C° 0.1 mm 8 mps 749 mmHg 74%
    01:00 +2°C° 0.1 mm 9 mps 749 mmHg 72%
    02:00 +2°C° 0.1 mm 10 mps 749 mmHg 71%
    03:00 +2°C° 0.1 mm 11 mps 749 mmHg 69%
    04:00 +2°C° 0.1 mm 10 mps 749 mmHg 69%
    05:00 +2°C° 0.1 mm 10 mps 749 mmHg 69%
    06:00 +2°C° 0.1 mm 10 mps 749 mmHg 69%
    07:00 +2°C° 0.3 mm 11 mps 749 mmHg 69%
    08:00 +2°C° 0.3 mm 12 mps 749 mmHg 68%
    09:00 +2°C° 0.3 mm 12 mps 749 mmHg 68%
    10:00 +3°C° 0.2 mm 12 mps 749 mmHg 68%
    11:00 +3°C° 0.2 mm 12 mps 749 mmHg 68%
    12:00 +3°C° 0.2 mm 12 mps 749 mmHg 68%
    13:00 +3°C° 0.2 mm 12 mps 749 mmHg 69%
    14:00 +3°C° 0.2 mm 11 mps 749 mmHg 70%
    15:00 +3°C° 0.2 mm 11 mps 749 mmHg 70%
    16:00 +3°C° 0.2 mm 10 mps 750 mmHg 71%
    17:00 +2°C° 0.2 mm 9 mps 751 mmHg 71%
    18:00 +2°C° 0.2 mm 8 mps 751 mmHg 72%
    19:00 +2°C° 0.1 mm 8 mps 751 mmHg 71%
    20:00 +2°C° 0.1 mm 8 mps 752 mmHg 70%
    21:00 +3°C° 0.1 mm 7 mps 752 mmHg 69%
    22:00 +2°C° 0.2 mm 8 mps 751 mmHg 71%
    23:00 +4°C° 0.2 mm 8 mps 751 mmHg 73%

    24 January, Thursday

    Time Temperature Precipitation Wind Pressure Humidity
    00:00 +4°C° 0.2 mm 8 mps 751 mmHg 75%
    01:00 +4°C° 0.5 mm 8 mps 751 mmHg 76%
    02:00 +4°C° 0.5 mm 8 mps 751 mmHg 77%
    03:00 +4°C° 0.5 mm 8 mps 750 mmHg 79%
    04:00 +2°C° 0.4 mm 10 mps 751 mmHg 78%
    05:00 0°C° 0.4 mm 13 mps 752 mmHg 77%
    06:00 -1°C° 0.4 mm 15 mps 753 mmHg 77%
    07:00 0°C° 0 mm 13 mps 754 mmHg 75%
    08:00 0°C° 0 mm 12 mps 755 mmHg 73%
    09:00 +2°C° 0 mm 11 mps 757 mmHg 71%
    10:00 +2°C° 0 mm 10 mps 757 mmHg 69%
    11:00 +3°C° 0 mm 10 mps 758 mmHg 67%
    12:00 +3°C° 0 mm 9 mps 758 mmHg 65%
    13:00 +3°C° 0 mm 9 mps 758 mmHg 66%
    14:00 +3°C° 0 mm 9 mps 758 mmHg 68%
    15:00 +4°C° 0 mm 8 mps 759 mmHg 69%
    16:00 +4°C° 0 mm 8 mps 759 mmHg 70%
    17:00 +4°C° 0 mm 8 mps 760 mmHg 72%
    18:00 +2°C° 0 mm 8 mps 760 mmHg 73%
    19:00 +2°C° 0 mm 8 mps 761 mmHg 73%
    20:00 +2°C° 0 mm 8 mps 761 mmHg 72%
    21:00 +2°C° 0 mm 8 mps 761 mmHg 71%
    22:00 +1°C° 0 mm 8 mps 762 mmHg 69%
    23:00 +2°C° 0 mm 7 mps 762 mmHg 66%
    Show more